Location: Newark
(27.9675°N, 86.8869°E)
Time: 19:47:04
(UTC+00:00)

SR - Pass Details

Date: 28 October 2019
Orbit: 574 x 882 km, 66.7° (Epoch: 17 November)

Event Time Altitude Azimuth Distance (km) Brightness Sun altitude
Rises 23:50:11 0° 333° (NNW) 3,481 ? -7.5°
Reaches altitude 10° 23:52:43 10° 332° (NNW) 2,539 ? -6.9°
Maximum altitude 23:58:38 76° 248° (WSW) 892 ? -5.7°
Drops below altitude 10° 00:04:18 10° 163° (SSE) 2,431 ? -4.4°
Sets 00:06:40 0° 162° (SSE) 3,323 ? -3.9°
